Tracking 17844 objects as of 23-August-2016
HD Live streaming from Space Station
objects crossing your sky now

COSMOS 2286

Track COSMOS 2286 now!
COSMOS 2286 is classified as:


NORAD ID: 23194
Int'l Code: 1994-048A
Perigee: 3,732.7 km
Apogee: 36,603.1 km
Inclination: 67.7 °
Period: 717.1 minutes
Semi major axis: 26538 km
RCS: 14.1879 m2 (large)
Launch date: August 5, 1994
Source: Commonwealth of Independent States (former USSR) (CIS)
Launch site: PLESETSK MISSILE AND SPACE COMPLEX (PKMTR)
Your satellite tracking list
Your tracking list is empty





NASA's NSSDC Master Catalog

Two Line Element Set (TLE):
1 23194U 94048A   16235.57908499 -.00000653 +00000-0 +00000-0 0  9997
2 23194 067.7246 031.2207 6192878 187.3232 155.9752 02.00807105161550
Source of the keplerian elements: AFSPC

N2YO: 639